owner,sensor,date,latitude,longitude,vertical_datum,direction_of_sea_water_velocity,sea_water_speed,upward_sea_water_velocity,qcFlag 
ADCP,ioos:station:wmo:42890:1,2013-10-01T00:03:00Z,27.6250,-90.4410,15.2,360.0,0.0,-9999.0,'11133222,11144222,99999999' 
ADCP,ioos:station:wmo:42890:1,2013-10-01T00:23:00Z,27.6250,-90.4410,15.2,0.0,0.0,-99999.0,'1114422,1114422,1199999999' 
ADCP,ioos:station:wmo:42890:1,2013-10-01T00:43:00Z,27.6250,-90.4410,15.2,360.0,0.0,-9999.0,'11133222,11144222,99999999' 
ADCP,ioos:station:wmo:42890:1,2013-10-01T01:03:00Z,27.6250,-90.4410,15.2,0.0,0.0,-99999.0,'1114422,1114422,1199999999' 
ADCP,ioos:station:wmo:42890:1,2013-10-01T01:23:00Z,27.6250,-90.4410,15.2,360.0,0.0,-9999.0,'11133222,11144222,99999999' 
ADCP,ioos:station:wmo:42890:1,2013-10-01T01:43:00Z,27.6250,-90.4410,15.2,360.0,0.0,-9999.0,'11133222,11144222,99999999' 
ADCP,ioos:station:wmo:42890:1,2013-10-01T02:03:00Z,27.6250,-90.4410,15.2,0.0,0.0,-99999.0,'1114422,1114422,1199999999' 
ADCP,ioos:station:wmo:42890:1,2013-10-01T02:23:00Z,27.6250,-90.4410,15.2,0.0,0.0,-99999.0,'1114422,1114422,1199999999' 
ADCP,ioos:station:wmo:42890:1,2013-10-01T02:43:00Z,27.6250,-90.4410,15.2,360.0,0.0,-9999.0,'11133222,11144222,99999999' 
ADCP,ioos:station:wmo:42890:1,2013-10-01T03:03:00Z,27.6250,-90.4410,15.2,0.0,0.0,-99999.0,'1114422,1114422,1199999999' 
ADCP,ioos:station:wmo:42890:1,2013-10-01T03:23:00Z,27.6250,-90.4410,15.2,360.0,0.0,-9999.0,'11133222,11144222,99999999' 
ADCP,ioos:station:wmo:42890:1,2013-10-01T03:43:00Z,27.6250,-90.4410,15.2,360.0,0.0,-9999.0,'11133222,11144222,99999999' 
ADCP,ioos:station:wmo:42890:1,2013-10-01T04:03:00Z,27.6250,-90.4410,15.2,0.0,0.0,-99999.0,'1114422,1114422,1199999999' 
ADCP,ioos:station:wmo:42890:1,2013-10-01T04:23:00Z,27.6250,-90.4410,15.2,0.0,0.0,-99999.0,'1114422,1114422,1199999999' 
ADCP,ioos:station:wmo:42890:1,2013-10-01T04:43:00Z,27.6250,-90.4410,15.2,360.0,0.0,-9999.0,'11133222,11144222,99999999' 
ADCP,ioos:station:wmo:42890:1,2013-10-01T05:03:00Z,27.6250,-90.4410,15.2,0.0,0.0,-99999.0,'1114422,1114422,1199999999' 
ADCP,ioos:station:wmo:42890:1,2013-10-01T05:23:00Z,27.6250,-90.4410,15.2,360.0,0.0,-9999.0,'11133222,11144222,99999999' 
ADCP,ioos:station:wmo:42890:1,2013-10-01T05:43:00Z,27.6250,-90.4410,15.2,360.0,0.0,-9999.0,'11133222,11144222,99999999' 
ADCP,ioos:station:wmo:42890:1,2013-10-01T06:03:00Z,27.6250,-90.4410,15.2,0.0,0.0,-99999.0,'1114422,1114422,1199999999' 
ADCP,ioos:station:wmo:42890:1,2013-10-01T06:23:00Z,27.6250,-90.4410,15.2,0.0,0.0,-99999.0,'1114422,1114422,1199999999' 
ADCP,ioos:station:wmo:42890:1,2013-10-01T06:43:00Z,27.6250,-90.4410,15.2,360.0,0.0,-9999.0,'11133222,11144222,99999999' 
ADCP,ioos:station:wmo:42890:1,2013-10-01T07:03:00Z,27.6250,-90.4410,15.2,0.0,0.0,-99999.0,'1114422,1114422,1199999999' 
ADCP,ioos:station:wmo:42890:1,2013-10-01T07:23:00Z,27.6250,-90.4410,15.2,0.0,0.0,-99999.0,'1114422,1114422,1199999999' 
ADCP,ioos:station:wmo:42890:1,2013-10-01T07:43:00Z,27.6250,-90.4410,15.2,360.0,0.0,-9999.0,'11133222,11144222,99999999' 
ADCP,ioos:station:wmo:42890:1,2013-10-01T08:03:00Z,27.6250,-90.4410,15.2,0.0,0.0,-99999.0,'1114422,1114422,1199999999' 
ADCP,ioos:station:wmo:42890:1,2013-10-01T08:23:00Z,27.6250,-90.4410,15.2,0.0,0.0,-99999.0,'1114422,1114422,1199999999' 
ADCP,ioos:station:wmo:42890:1,2013-10-01T08:43:00Z,27.6250,-90.4410,15.2,360.0,0.0,-9999.0,'11133222,11144222,99999999' 
ADCP,ioos:station:wmo:42890:1,2013-10-01T09:03:00Z,27.6250,-90.4410,15.2,0.0,0.0,-99999.0,'1114422,1114422,1199999999' 
ADCP,ioos:station:wmo:42890:1,2013-10-01T09:23:00Z,27.6250,-90.4410,15.2,360.0,0.0,-9999.0,'11133222,11144222,99999999' 
ADCP,ioos:station:wmo:42890:1,2013-10-01T09:43:00Z,27.6250,-90.4410,15.2,0.0,0.0,-99999.0,'1114422,1114422,1199999999' 
ADCP,ioos:station:wmo:42890:1,2013-10-01T10:03:00Z,27.6250,-90.4410,15.2,360.0,0.0,-9999.0,'11133222,11144222,99999999' 
ADCP,ioos:station:wmo:42890:1,2013-10-01T10:23:00Z,27.6250,-90.4410,15.2,0.0,0.0,-99999.0,'1114422,1114422,1199999999' 
ADCP,ioos:station:wmo:42890:1,2013-10-01T10:43:00Z,27.6250,-90.4410,15.2,360.0,0.0,-9999.0,'11133222,11144222,99999999' 
ADCP,ioos:station:wmo:42890:1,2013-10-01T11:03:00Z,27.6250,-90.4410,15.2,0.0,0.0,-99999.0,'1114422,1114422,1199999999' 
ADCP,ioos:station:wmo:42890:1,2013-10-01T11:23:00Z,27.6250,-90.4410,15.2,54.0,22.1,-99999.0,'1111122,1111122,1199999999' 
ADCP,ioos:station:wmo:42890:1,2013-10-01T11:43:00Z,27.6250,-90.4410,15.2,51.0,23.8,-9999.0,'11111222,11111222,99999999' 
ADCP,ioos:station:wmo:42890:1,2013-10-01T12:03:00Z,27.6250,-90.4410,15.2,57.0,21.1,-99999.0,'1111122,1111122,1199999999' 
ADCP,ioos:station:wmo:42890:1,2013-10-01T12:23:00Z,27.6250,-90.4410,15.2,102.0,54.6,-99999.0,'1111122,1111122,1199999999' 
ADCP,ioos:station:wmo:42890:1,2013-10-01T12:43:00Z,27.6250,-90.4410,15.2,41.0,13.3,-9999.0,'11111222,11111222,99999999' 
ADCP,ioos:station:wmo:42890:1,2013-10-01T13:03:00Z,27.6250,-90.4410,15.2,0.0,0.0,-99999.0,'1114422,1114422,1199999999' 
ADCP,ioos:station:wmo:42890:1,2013-10-01T13:23:00Z,27.6250,-90.4410,15.2,282.0,14.9,-9999.0,'11111222,11111222,99999999' 
ADCP,ioos:station:wmo:42890:1,2013-10-01T13:43:00Z,27.6250,-90.4410,15.2,24.0,18.3,-9999.0,'11111222,11111222,99999999' 
ADCP,ioos:station:wmo:42890:1,2013-10-01T14:03:00Z,27.6250,-90.4410,15.2,0.0,0.0,-99999.0,'1114422,1114422,1199999999' 
ADCP,ioos:station:wmo:42890:1,2013-10-01T14:23:00Z,27.6250,-90.4410,15.2,0.0,0.0,-99999.0,'1114422,1114422,1199999999' 
ADCP,ioos:station:wmo:42890:1,2013-10-01T14:43:00Z,27.6250,-90.4410,15.2,360.0,0.0,-9999.0,'11133222,11144222,99999999' 
ADCP,ioos:station:wmo:42890:1,2013-10-01T15:03:00Z,27.6250,-90.4410,15.2,360.0,0.0,-9999.0,'11133222,11144222,99999999' 
ADCP,ioos:station:wmo:42890:1,2013-10-01T15:23:00Z,27.6250,-90.4410,15.2,0.0,0.0,-99999.0,'1114422,1114422,1199999999' 
ADCP,ioos:station:wmo:42890:1,2013-10-01T15:43:00Z,27.6250,-90.4410,15.2,65.0,24.4,-9999.0,'11111222,11111222,99999999' 
ADCP,ioos:station:wmo:42890:1,2013-10-01T16:03:00Z,27.6250,-90.4410,15.2,0.0,0.0,-99999.0,'1114422,1114422,1199999999' 
ADCP,ioos:station:wmo:42890:1,2013-10-01T16:23:00Z,27.6250,-90.4410,15.2,0.0,0.0,-99999.0,'1114422,1114422,1199999999' 
ADCP,ioos:station:wmo:42890:1,2013-10-01T16:43:00Z,27.6250,-90.4410,15.2,360.0,0.0,-9999.0,'11133222,11144222,99999999' 
ADCP,ioos:station:wmo:42890:1,2013-10-01T17:03:00Z,27.6250,-90.4410,15.2,67.0,25.3,-99999.0,'1111122,1111122,1199999999' 
ADCP,ioos:station:wmo:42890:1,2013-10-01T17:23:00Z,27.6250,-90.4410,15.2,360.0,0.0,-9999.0,'11133222,11144222,99999999' 
ADCP,ioos:station:wmo:42890:1,2013-10-01T17:43:00Z,27.6250,-90.4410,15.2,0.0,0.0,-99999.0,'1114422,1114422,1199999999' 
ADCP,ioos:station:wmo:42890:1,2013-10-01T18:03:00Z,27.6250,-90.4410,15.2,0.0,0.0,-99999.0,'1114422,1114422,1199999999' 
ADCP,ioos:station:wmo:42890:1,2013-10-01T18:23:00Z,27.6250,-90.4410,15.2,360.0,0.0,-9999.0,'11133222,11144222,99999999' 
ADCP,ioos:station:wmo:42890:1,2013-10-01T18:43:00Z,27.6250,-90.4410,15.2,360.0,0.0,-9999.0,'11133222,11144222,99999999' 
ADCP,ioos:station:wmo:42890:1,2013-10-01T19:03:00Z,27.6250,-90.4410,15.2,0.0,0.0,-99999.0,'1114422,1114422,1199999999' 
ADCP,ioos:station:wmo:42890:1,2013-10-01T19:23:00Z,27.6250,-90.4410,15.2,0.0,0.0,-99999.0,'1114422,1114422,1199999999' 
ADCP,ioos:station:wmo:42890:1,2013-10-01T19:43:00Z,27.6250,-90.4410,15.2,360.0,0.0,-9999.0,'11133222,11144222,99999999' 
ADCP,ioos:station:wmo:42890:1,2013-10-01T20:03:00Z,27.6250,-90.4410,15.2,360.0,0.0,-9999.0,'11133222,11144222,99999999' 
ADCP,ioos:station:wmo:42890:1,2013-10-01T20:23:00Z,27.6250,-90.4410,15.2,61.0,31.0,-9999.0,'11111222,11111222,99999999' 
ADCP,ioos:station:wmo:42890:1,2013-10-01T20:43:00Z,27.6250,-90.4410,15.2,0.0,0.0,-99999.0,'1114422,1114422,1199999999' 
ADCP,ioos:station:wmo:42890:1,2013-10-01T21:03:00Z,27.6250,-90.4410,15.2,0.0,0.0,-99999.0,'1114422,1114422,1199999999' 
ADCP,ioos:station:wmo:42890:1,2013-10-01T21:23:00Z,27.6250,-90.4410,15.2,360.0,0.0,-9999.0,'11133222,11144222,99999999' 
ADCP,ioos:station:wmo:42890:1,2013-10-01T21:43:00Z,27.6250,-90.4410,15.2,0.0,0.0,-99999.0,'1114422,1114422,1199999999' 
ADCP,ioos:station:wmo:42890:1,2013-10-01T22:03:00Z,27.6250,-90.4410,15.2,0.0,0.0,-99999.0,'1114422,1114422,1199999999' 
ADCP,ioos:station:wmo:42890:1,2013-10-01T22:23:00Z,27.6250,-90.4410,15.2,360.0,0.0,-9999.0,'11133222,11144222,99999999' 
ADCP,ioos:station:wmo:42890:1,2013-10-01T22:43:00Z,27.6250,-90.4410,15.2,0.0,0.0,-99999.0,'1114422,1114422,1199999999' 
ADCP,ioos:station:wmo:42890:1,2013-10-01T23:03:00Z,27.6250,-90.4410,15.2,0.0,0.0,-99999.0,'1114422,1114422,1199999999' 
ADCP,ioos:station:wmo:42890:1,2013-10-01T23:23:00Z,27.6250,-90.4410,15.2,360.0,0.0,-9999.0,'11133222,11144222,99999999' 
ADCP,ioos:station:wmo:42890:1,2013-10-01T23:43:00Z,27.6250,-90.4410,15.2,0.0,0.0,-99999.0,'1114422,1114422,1199999999' 
ADCP,ioos:station:wmo:42890:1,2013-10-02T00:03:00Z,27.6250,-90.4410,15.2,0.0,0.0,-99999.0,'1114422,1114422,1199999999' 
ADCP,ioos:station:wmo:42890:1,2013-10-02T00:23:00Z,27.6250,-90.4410,15.2,0.0,0.0,-99999.0,'1114422,1114422,1199999999' 
ADCP,ioos:station:wmo:42890:1,2013-10-02T00:43:00Z,27.6250,-90.4410,15.2,360.0,0.0,-9999.0,'11133222,11144222,99999999' 
ADCP,ioos:station:wmo:42890:1,2013-10-02T01:03:00Z,27.6250,-90.4410,15.2,360.0,0.0,-9999.0,'11133222,11144222,99999999' 
ADCP,ioos:station:wmo:42890:1,2013-10-02T01:23:00Z,27.6250,-90.4410,15.2,360.0,0.0,-9999.0,'11133222,11144222,99999999' 
ADCP,ioos:station:wmo:42890:1,2013-10-02T01:43:00Z,27.6250,-90.4410,15.2,0.0,0.0,-99999.0,'1114422,1114422,1199999999' 
ADCP,ioos:station:wmo:42890:1,2013-10-02T02:03:00Z,27.6250,-90.4410,15.2,0.0,0.0,-99999.0,'1114422,1114422,1199999999' 
ADCP,ioos:station:wmo:42890:1,2013-10-02T02:23:00Z,27.6250,-90.4410,15.2,0.0,0.0,-99999.0,'1114422,1114422,1199999999' 
ADCP,ioos:station:wmo:42890:1,2013-10-02T02:43:00Z,27.6250,-90.4410,15.2,360.0,0.0,-9999.0,'11133222,11144222,99999999' 
ADCP,ioos:station:wmo:42890:1,2013-10-02T03:03:00Z,27.6250,-90.4410,15.2,0.0,0.0,-99999.0,'1114422,1114422,1199999999' 
ADCP,ioos:station:wmo:42890:1,2013-10-02T03:23:00Z,27.6250,-90.4410,15.2,0.0,0.0,-99999.0,'1114422,1114422,1199999999' 
ADCP,ioos:station:wmo:42890:1,2013-10-02T03:43:00Z,27.6250,-90.4410,15.2,360.0,0.0,-9999.0,'11133222,11144222,99999999' 
ADCP,ioos:station:wmo:42890:1,2013-10-02T04:03:00Z,27.6250,-90.4410,15.2,0.0,0.0,-99999.0,'1114422,1114422,1199999999' 
ADCP,ioos:station:wmo:42890:1,2013-10-02T04:23:00Z,27.6250,-90.4410,15.2,360.0,0.0,-9999.0,'11133222,11144222,99999999' 
ADCP,ioos:station:wmo:42890:1,2013-10-02T04:43:00Z,27.6250,-90.4410,15.2,360.0,0.0,-9999.0,'11133222,11144222,99999999' 
ADCP,ioos:station:wmo:42890:1,2013-10-02T05:03:00Z,27.6250,-90.4410,15.2,0.0,0.0,-99999.0,'1114422,1114422,1199999999' 
ADCP,ioos:station:wmo:42890:1,2013-10-02T05:23:00Z,27.6250,-90.4410,15.2,0.0,0.0,-99999.0,'1114422,1114422,1199999999' 
ADCP,ioos:station:wmo:42890:1,2013-10-02T05:43:00Z,27.6250,-90.4410,15.2,360.0,0.0,-9999.0,'11133222,11144222,99999999' 
ADCP,ioos:station:wmo:42890:1,2013-10-02T06:03:00Z,27.6250,-90.4410,15.2,360.0,0.0,-9999.0,'11133222,11144222,99999999' 
ADCP,ioos:station:wmo:42890:1,2013-10-02T06:23:00Z,27.6250,-90.4410,15.2,0.0,0.0,-99999.0,'1114422,1114422,1199999999' 
ADCP,ioos:station:wmo:42890:1,2013-10-02T06:43:00Z,27.6250,-90.4410,15.2,8.0,12.6,-9999.0,'11111222,11111222,99999999' 
ADCP,ioos:station:wmo:42890:1,2013-10-02T07:03:00Z,27.6250,-90.4410,15.2,0.0,0.0,-99999.0,'1114422,1114422,1199999999' 
ADCP,ioos:station:wmo:42890:1,2013-10-02T07:23:00Z,27.6250,-90.4410,15.2,360.0,0.0,-9999.0,'11133222,11144222,99999999' 
ADCP,ioos:station:wmo:42890:1,2013-10-02T07:43:00Z,27.6250,-90.4410,15.2,274.0,31.8,-99999.0,'1111122,1111122,1199999999' 
ADCP,ioos:station:wmo:42890:1,2013-10-02T08:03:00Z,27.6250,-90.4410,15.2,45.0,44.5,-99999.0,'1111122,1111122,1199999999' 
ADCP,ioos:station:wmo:42890:1,2013-10-02T08:23:00Z,27.6250,-90.4410,15.2,32.0,36.7,-99999.0,'1111122,1111122,1199999999' 
ADCP,ioos:station:wmo:42890:1,2013-10-02T08:43:00Z,27.6250,-90.4410,15.2,13.0,27.2,-9999.0,'11111222,11111222,99999999' 
ADCP,ioos:station:wmo:42890:1,2013-10-02T09:03:00Z,27.6250,-90.4410,15.2,35.0,30.3,-99999.0,'1111122,1111122,1199999999' 
ADCP,ioos:station:wmo:42890:1,2013-10-02T09:23:00Z,27.6250,-90.4410,15.2,36.0,37.6,-9999.0,'11111222,11111222,99999999' 
ADCP,ioos:station:wmo:42890:1,2013-10-02T09:43:00Z,27.6250,-90.4410,15.2,20.0,29.1,-9999.0,'11111222,11111222,99999999' 
ADCP,ioos:station:wmo:42890:1,2013-10-02T10:03:00Z,27.6250,-90.4410,15.2,42.0,41.6,-99999.0,'1111122,1111122,1199999999' 
ADCP,ioos:station:wmo:42890:1,2013-10-02T10:23:00Z,27.6250,-90.4410,15.2,23.0,32.5,-99999.0,'1111122,1111122,1199999999' 
ADCP,ioos:station:wmo:42890:1,2013-10-02T10:43:00Z,27.6250,-90.4410,15.2,21.0,32.2,-9999.0,'11111222,11111222,99999999' 
ADCP,ioos:station:wmo:42890:1,2013-10-02T11:03:00Z,27.6250,-90.4410,15.2,16.0,32.7,-99999.0,'1111122,1111122,1199999999' 
ADCP,ioos:station:wmo:42890:1,2013-10-02T11:23:00Z,27.6250,-90.4410,15.2,13.0,32.3,-9999.0,'11111222,11111222,99999999' 
ADCP,ioos:station:wmo:42890:1,2013-10-02T11:43:00Z,27.6250,-90.4410,15.2,9.0,28.6,-99999.0,'1111122,1111122,1199999999' 
ADCP,ioos:station:wmo:42890:1,2013-10-02T12:03:00Z,27.6250,-90.4410,15.2,9.0,25.0,-99999.0,'1111122,1111122,1199999999' 
ADCP,ioos:station:wmo:42890:1,2013-10-02T12:23:00Z,27.6250,-90.4410,15.2,4.0,23.7,-9999.0,'11111222,11111222,99999999' 
ADCP,ioos:station:wmo:42890:1,2013-10-02T12:43:00Z,27.6250,-90.4410,15.2,6.0,22.5,-99999.0,'1111122,1111122,1199999999' 
ADCP,ioos:station:wmo:42890:1,2013-10-02T13:03:00Z,27.6250,-90.4410,15.2,22.0,23.7,-99999.0,'1111122,1111122,1199999999' 
ADCP,ioos:station:wmo:42890:1,2013-10-02T13:23:00Z,27.6250,-90.4410,15.2,13.0,22.9,-9999.0,'11111222,11111222,99999999' 
ADCP,ioos:station:wmo:42890:1,2013-10-02T13:43:00Z,27.6250,-90.4410,15.2,15.0,28.5,-99999.0,'1111122,1111122,1199999999' 
ADCP,ioos:station:wmo:42890:1,2013-10-02T14:03:00Z,27.6250,-90.4410,15.2,38.0,33.3,-99999.0,'1111122,1111122,1199999999' 
ADCP,ioos:station:wmo:42890:1,2013-10-02T14:23:00Z,27.6250,-90.4410,15.2,312.0,23.7,-99999.0,'1111122,1111122,1199999999' 
ADCP,ioos:station:wmo:42890:1,2013-10-02T14:43:00Z,27.6250,-90.4410,15.2,262.0,32.1,-9999.0,'11111222,11111222,99999999' 
ADCP,ioos:station:wmo:42890:1,2013-10-02T15:03:00Z,27.6250,-90.4410,15.2,283.0,31.5,-99999.0,'1111122,1111122,1199999999' 
ADCP,ioos:station:wmo:42890:1,2013-10-02T15:23:00Z,27.6250,-90.4410,15.2,76.0,58.2,-99999.0,'1111122,1111122,1199999999' 
ADCP,ioos:station:wmo:42890:1,2013-10-02T15:43:00Z,27.6250,-90.4410,15.2,278.0,39.1,-9999.0,'11111222,11111222,99999999' 
ADCP,ioos:station:wmo:42890:1,2013-10-02T16:03:00Z,27.6250,-90.4410,15.2,304.0,20.4,-9999.0,'11111222,11111222,99999999' 
ADCP,ioos:station:wmo:42890:1,2013-10-02T16:23:00Z,27.6250,-90.4410,15.2,11.0,31.4,-9999.0,'11111222,11111222,99999999' 
ADCP,ioos:station:wmo:42890:1,2013-10-02T16:43:00Z,27.6250,-90.4410,15.2,297.0,18.6,-99999.0,'1111122,1111122,1199999999' 
ADCP,ioos:station:wmo:42890:1,2013-10-02T17:03:00Z,27.6250,-90.4410,15.2,345.0,17.3,-99999.0,'1111122,1111122,1199999999' 
ADCP,ioos:station:wmo:42890:1,2013-10-02T17:23:00Z,27.6250,-90.4410,15.2,359.0,15.4,-9999.0,'11111222,11111222,99999999' 
ADCP,ioos:station:wmo:42890:1,2013-10-02T17:43:00Z,27.6250,-90.4410,15.2,351.0,10.4,-99999.0,'1111122,1111122,1199999999' 
ADCP,ioos:station:wmo:42890:1,2013-10-02T18:03:00Z,27.6250,-90.4410,15.2,317.0,7.3,-99999.0,'1111122,1111122,1199999999' 
ADCP,ioos:station:wmo:42890:1,2013-10-02T18:23:00Z,27.6250,-90.4410,15.2,130.0,4.7,-99999.0,'1111122,1111122,1199999999' 
ADCP,ioos:station:wmo:42890:1,2013-10-02T18:43:00Z,27.6250,-90.4410,15.2,223.0,13.2,-9999.0,'11111222,11111222,99999999' 
ADCP,ioos:station:wmo:42890:1,2013-10-02T19:03:00Z,27.6250,-90.4410,15.2,228.0,14.2,-99999.0,'1111122,1111122,1199999999' 
ADCP,ioos:station:wmo:42890:1,2013-10-02T19:23:00Z,27.6250,-90.4410,15.2,223.0,12.0,-9999.0,'11111222,11111222,99999999' 
ADCP,ioos:station:wmo:42890:1,2013-10-02T19:43:00Z,27.6250,-90.4410,15.2,230.0,15.0,-9999.0,'11111222,11111222,99999999' 
ADCP,ioos:station:wmo:42890:1,2013-10-02T20:03:00Z,27.6250,-90.4410,15.2,228.0,12.3,-99999.0,'1111122,1111122,1199999999' 
ADCP,ioos:station:wmo:42890:1,2013-10-02T20:23:00Z,27.6250,-90.4410,15.2,229.0,12.4,-9999.0,'11111222,11111222,99999999' 
ADCP,ioos:station:wmo:42890:1,2013-10-02T20:43:00Z,27.6250,-90.4410,15.2,238.0,19.2,-99999.0,'1111122,1111122,1199999999' 
ADCP,ioos:station:wmo:42890:1,2013-10-02T21:03:00Z,27.6250,-90.4410,15.2,235.0,17.4,-9999.0,'11111222,11111222,99999999' 
ADCP,ioos:station:wmo:42890:1,2013-10-02T21:23:00Z,27.6250,-90.4410,15.2,214.0,12.3,-99999.0,'1111122,1111122,1199999999' 
ADCP,ioos:station:wmo:42890:1,2013-10-02T21:43:00Z,27.6250,-90.4410,15.2,207.0,17.7,-9999.0,'11111222,11111222,99999999' 
ADCP,ioos:station:wmo:42890:1,2013-10-02T22:03:00Z,27.6250,-90.4410,15.2,215.0,14.5,-99999.0,'1111122,1111122,1199999999' 
ADCP,ioos:station:wmo:42890:1,2013-10-02T22:23:00Z,27.6250,-90.4410,15.2,226.0,16.8,-99999.0,'1111122,1111122,1199999999' 
ADCP,ioos:station:wmo:42890:1,2013-10-02T22:43:00Z,27.6250,-90.4410,15.2,235.0,18.5,-9999.0,'11111222,11111222,99999999' 
ADCP,ioos:station:wmo:42890:1,2013-10-02T23:03:00Z,27.6250,-90.4410,15.2,230.0,16.5,-99999.0,'1111122,1111122,1199999999' 
ADCP,ioos:station:wmo:42890:1,2013-10-02T23:23:00Z,27.6250,-90.4410,15.2,230.0,22.1,-9999.0,'11111222,11111222,99999999' 
ADCP,ioos:station:wmo:42890:1,2013-10-02T23:43:00Z,27.6250,-90.4410,15.2,222.0,20.5,-99999.0,'1111122,1111122,1199999999' 
ADCP,ioos:station:wmo:42890:1,2013-10-03T00:03:00Z,27.6250,-90.4410,15.2,222.0,22.4,-99999.0,'1111122,1111122,1199999999' 
ADCP,ioos:station:wmo:42890:1,2013-10-03T00:23:00Z,27.6250,-90.4410,15.2,215.0,21.4,-9999.0,'11111222,11111222,99999999' 
ADCP,ioos:station:wmo:42890:1,2013-10-03T00:43:00Z,27.6250,-90.4410,15.2,226.0,27.8,-9999.0,'11111222,11111222,99999999' 
ADCP,ioos:station:wmo:42890:1,2013-10-03T01:03:00Z,27.6250,-90.4410,15.2,237.0,48.0,-99999.0,'1111122,1111122,1199999999' 
ADCP,ioos:station:wmo:42890:1,2013-10-03T01:23:00Z,27.6250,-90.4410,15.2,242.0,67.8,-9999.0,'11111222,11111222,99999999' 
ADCP,ioos:station:wmo:42890:1,2013-10-03T01:43:00Z,27.6250,-90.4410,15.2,246.0,71.1,-99999.0,'1111122,1111122,1199999999' 
ADCP,ioos:station:wmo:42890:1,2013-10-03T02:03:00Z,27.6250,-90.4410,15.2,221.0,79.2,-9999.0,'11111222,11111222,99999999' 
ADCP,ioos:station:wmo:42890:1,2013-10-03T02:23:00Z,27.6250,-90.4410,15.2,360.0,0.0,-9999.0,'11133222,11144222,99999999' 
ADCP,ioos:station:wmo:42890:1,2013-10-03T02:43:00Z,27.6250,-90.4410,15.2,0.0,0.0,-99999.0,'1114422,1114422,1199999999' 
ADCP,ioos:station:wmo:42890:1,2013-10-03T03:03:00Z,27.6250,-90.4410,15.2,0.0,0.0,-99999.0,'1114422,1114422,1199999999' 
ADCP,ioos:station:wmo:42890:1,2013-10-03T03:23:00Z,27.6250,-90.4410,15.2,360.0,0.0,-9999.0,'11133222,11144222,99999999' 
ADCP,ioos:station:wmo:42890:1,2013-10-03T03:43:00Z,27.6250,-90.4410,15.2,0.0,0.0,-99999.0,'1114422,1114422,1199999999' 
ADCP,ioos:station:wmo:42890:1,2013-10-03T04:03:00Z,27.6250,-90.4410,15.2,0.0,0.0,-99999.0,'1114422,1114422,1199999999' 
ADCP,ioos:station:wmo:42890:1,2013-10-03T04:23:00Z,27.6250,-90.4410,15.2,360.0,0.0,-9999.0,'11133222,11144222,99999999' 
ADCP,ioos:station:wmo:42890:1,2013-10-03T04:43:00Z,27.6250,-90.4410,15.2,0.0,0.0,-99999.0,'1114422,1114422,1199999999' 
ADCP,ioos:station:wmo:42890:1,2013-10-03T05:03:00Z,27.6250,-90.4410,15.2,0.0,0.0,-99999.0,'1114422,1114422,1199999999' 
ADCP,ioos:station:wmo:42890:1,2013-10-03T05:23:00Z,27.6250,-90.4410,15.2,360.0,0.0,-9999.0,'11133222,11144222,99999999' 
ADCP,ioos:station:wmo:42890:1,2013-10-03T05:43:00Z,27.6250,-90.4410,15.2,0.0,0.0,-99999.0,'1114422,1114422,1199999999' 
ADCP,ioos:station:wmo:42890:1,2013-10-03T06:03:00Z,27.6250,-90.4410,15.2,0.0,0.0,-99999.0,'1114422,1114422,1199999999' 
ADCP,ioos:station:wmo:42890:1,2013-10-03T06:23:00Z,27.6250,-90.4410,15.2,0.0,0.0,-99999.0,'1114422,1114422,1199999999' 
ADCP,ioos:station:wmo:42890:1,2013-10-03T06:43:00Z,27.6250,-90.4410,15.2,360.0,0.0,-9999.0,'11133222,11144222,99999999' 
ADCP,ioos:station:wmo:42890:1,2013-10-03T07:03:00Z,27.6250,-90.4410,15.2,360.0,0.0,-9999.0,'11133222,11144222,99999999' 
ADCP,ioos:station:wmo:42890:1,2013-10-03T07:23:00Z,27.6250,-90.4410,15.2,360.0,0.0,-9999.0,'11133222,11144222,99999999' 
ADCP,ioos:station:wmo:42890:1,2013-10-03T07:43:00Z,27.6250,-90.4410,15.2,0.0,0.0,-99999.0,'1114422,1114422,1199999999' 
ADCP,ioos:station:wmo:42890:1,2013-10-03T08:03:00Z,27.6250,-90.4410,15.2,0.0,0.0,-99999.0,'1114422,1114422,1199999999' 
ADCP,ioos:station:wmo:42890:1,2013-10-03T08:23:00Z,27.6250,-90.4410,15.2,360.0,0.0,-9999.0,'11133222,11144222,99999999' 
ADCP,ioos:station:wmo:42890:1,2013-10-03T08:43:00Z,27.6250,-90.4410,15.2,0.0,0.0,-99999.0,'1114422,1114422,1199999999' 
ADCP,ioos:station:wmo:42890:1,2013-10-03T09:03:00Z,27.6250,-90.4410,15.2,0.0,0.0,-99999.0,'1114422,1114422,1199999999' 
ADCP,ioos:station:wmo:42890:1,2013-10-03T09:23:00Z,27.6250,-90.4410,15.2,360.0,0.0,-9999.0,'11133222,11144222,99999999' 
ADCP,ioos:station:wmo:42890:1,2013-10-03T09:43:00Z,27.6250,-90.4410,15.2,0.0,0.0,-99999.0,'1114422,1114422,1199999999' 
ADCP,ioos:station:wmo:42890:1,2013-10-03T10:03:00Z,27.6250,-90.4410,15.2,0.0,0.0,-99999.0,'1114422,1114422,1199999999' 
ADCP,ioos:station:wmo:42890:1,2013-10-03T10:23:00Z,27.6250,-90.4410,15.2,360.0,0.0,-9999.0,'11133222,11144222,99999999' 
ADCP,ioos:station:wmo:42890:1,2013-10-03T10:43:00Z,27.6250,-90.4410,15.2,314.0,19.7,-9999.0,'11111222,11111222,99999999' 
ADCP,ioos:station:wmo:42890:1,2013-10-03T11:03:00Z,27.6250,-90.4410,15.2,274.0,42.4,-99999.0,'1111122,1111122,1199999999' 
ADCP,ioos:station:wmo:42890:1,2013-10-03T11:23:00Z,27.6250,-90.4410,15.2,274.0,40.2,-9999.0,'11111222,11111222,99999999' 
ADCP,ioos:station:wmo:42890:1,2013-10-03T11:43:00Z,27.6250,-90.4410,15.2,331.0,24.9,-99999.0,'1111122,1111122,1199999999' 
ADCP,ioos:station:wmo:42890:1,2013-10-03T12:03:00Z,27.6250,-90.4410,15.2,348.0,21.3,-9999.0,'11111222,11111222,99999999' 
ADCP,ioos:station:wmo:42890:1,2013-10-03T12:23:00Z,27.6250,-90.4410,15.2,8.0,17.5,-99999.0,'1111122,1111122,1199999999' 
ADCP,ioos:station:wmo:42890:1,2013-10-03T12:43:00Z,27.6250,-90.4410,15.2,42.0,13.1,-9999.0,'11111222,11111222,99999999' 
ADCP,ioos:station:wmo:42890:1,2013-10-03T13:03:00Z,27.6250,-90.4410,15.2,103.0,61.7,-99999.0,'1111122,1111122,1199999999' 
ADCP,ioos:station:wmo:42890:1,2013-10-03T13:23:00Z,27.6250,-90.4410,15.2,249.0,20.2,-99999.0,'1111122,1111122,1199999999' 
ADCP,ioos:station:wmo:42890:1,2013-10-03T13:43:00Z,27.6250,-90.4410,15.2,2.0,9.8,-9999.0,'11133222,11111222,99999999' 
ADCP,ioos:station:wmo:42890:1,2013-10-03T14:03:00Z,27.6250,-90.4410,15.2,268.0,6.6,-99999.0,'1111122,1111122,1199999999' 
ADCP,ioos:station:wmo:42890:1,2013-10-03T14:23:00Z,27.6250,-90.4410,15.2,258.0,9.7,-99999.0,'1111122,1111122,1199999999' 
ADCP,ioos:station:wmo:42890:1,2013-10-03T14:43:00Z,27.6250,-90.4410,15.2,270.0,16.2,-9999.0,'11111222,11111222,99999999' 
ADCP,ioos:station:wmo:42890:1,2013-10-03T15:03:00Z,27.6250,-90.4410,15.2,113.0,23.3,-99999.0,'1111122,1111122,1199999999' 
ADCP,ioos:station:wmo:42890:1,2013-10-03T15:23:00Z,27.6250,-90.4410,15.2,241.0,17.2,-9999.0,'11111222,11111222,99999999' 
ADCP,ioos:station:wmo:42890:1,2013-10-03T15:43:00Z,27.6250,-90.4410,15.2,258.0,8.8,-9999.0,'11133222,11111222,99999999' 
ADCP,ioos:station:wmo:42890:1,2013-10-03T16:03:00Z,27.6250,-90.4410,15.2,253.0,17.2,-99999.0,'1111122,1111122,1199999999' 
ADCP,ioos:station:wmo:42890:1,2013-10-03T16:23:00Z,27.6250,-90.4410,15.2,254.0,18.4,-9999.0,'11111222,11111222,99999999' 
ADCP,ioos:station:wmo:42890:1,2013-10-03T16:43:00Z,27.6250,-90.4410,15.2,316.0,14.6,-99999.0,'1111122,1111122,1199999999' 
ADCP,ioos:station:wmo:42890:1,2013-10-03T17:03:00Z,27.6250,-90.4410,15.2,105.0,15.9,-9999.0,'11111222,11111222,99999999' 
ADCP,ioos:station:wmo:42890:1,2013-10-03T17:23:00Z,27.6250,-90.4410,15.2,65.0,32.7,-9999.0,'11111222,11111222,99999999' 